Time,TemperatureF,DewpointF,PressureIn,WindDirection,WindDirectionDegrees,WindSpeedMPH,WindSpeedGustMPH,Humidity,HourlyPrecipIn,Conditions,Clouds,dailyrainin,SoftwareType,DateUTC
2013-05-11 16:21:00,78.3,53.0,30.05,North,6,6.0,12.0,41,0.00,,,0.01,weatherlink.com 1.10,2013-05-11 21:21:00,
2013-05-11 16:30:00,78.3,52.0,30.05,NE,44,11.0,17.0,40,0.00,,,0.01,weatherlink.com 1.10,2013-05-11 21:30:00,
2013-05-11 16:45:00,78.1,51.0,30.05,NE,42,12.0,18.0,39,0.00,,,0.01,weatherlink.com 1.10,2013-05-11 21:45:00,
2013-05-11 17:00:00,78.2,51.0,30.04,NNE,25,10.0,19.0,39,0.00,,,0.01,weatherlink.com 1.10,2013-05-11 22:00:00,
2013-05-11 17:15:00,78.5,53.0,30.04,NE,47,15.0,17.0,42,0.00,,,0.01,weatherlink.com 1.10,2013-05-11 22:15:00,
2013-05-11 17:30:00,78.2,50.0,30.04,ENE,65,8.0,19.0,37,0.00,,,0.01,weatherlink.com 1.10,2013-05-11 22:30:00,
2013-05-11 17:45:00,78.3,51.0,30.04,NE,43,4.0,16.0,39,0.00,,,0.01,weatherlink.com 1.10,2013-05-11 22:45:00,
2013-05-11 18:00:00,78.0,50.0,30.04,NNE,27,8.0,16.0,38,0.00,,,0.01,weatherlink.com 1.10,2013-05-11 23:00:00,
2013-05-11 18:15:00,78.0,50.0,30.04,NE,46,11.0,14.0,37,0.00,,,0.01,weatherlink.com 1.10,2013-05-11 23:15:00,
2013-05-11 18:30:00,77.6,51.0,30.04,ENE,60,13.0,16.0,40,0.00,,,0.01,weatherlink.com 1.10,2013-05-11 23:30:00,
2013-05-11 18:45:00,77.4,50.0,30.04,NE,40,10.0,17.0,39,0.00,,,0.01,weatherlink.com 1.10,2013-05-11 23:45:00,
2013-05-11 19:00:00,77.2,50.0,30.05,NE,43,10.0,15.0,38,0.00,,,0.01,weatherlink.com 1.10,2013-05-12 00:00:00,
2013-05-11 19:15:00,76.7,51.0,30.05,NE,46,8.0,12.0,41,0.00,,,0.01,weatherlink.com 1.10,2013-05-12 00:15:00,
2013-05-11 19:30:00,76.2,50.0,30.05,NE,40,6.0,14.0,40,0.00,,,0.01,weatherlink.com 1.10,2013-05-12 00:30:00,
2013-05-11 19:45:00,75.6,50.0,30.06,NE,42,8.0,13.0,41,0.00,,,0.01,weatherlink.com 1.10,2013-05-12 00:45:00,
2013-05-11 20:00:00,74.6,51.0,30.07,NE,44,8.0,10.0,44,0.00,,,0.01,weatherlink.com 1.10,2013-05-12 01:00:00,
2013-05-11 20:15:00,73.8,52.0,30.08,NE,45,5.0,7.0,47,0.00,,,0.01,weatherlink.com 1.10,2013-05-12 01:15:00,
2013-05-11 20:30:00,72.8,54.0,30.09,NE,45,2.0,6.0,51,0.00,,,0.01,weatherlink.com 1.10,2013-05-12 01:30:00,
2013-05-11 20:45:00,72.1,52.0,30.09,NE,45,5.0,7.0,50,0.00,,,0.01,weatherlink.com 1.10,2013-05-12 01:45:00,
2013-05-11 21:00:00,71.6,56.0,30.09,NE,45,4.0,5.0,58,0.00,,,0.01,weatherlink.com 1.10,2013-05-12 02:00:00,
2013-05-11 21:15:00,70.9,52.0,30.10,NE,41,6.0,7.0,52,0.00,,,0.01,weatherlink.com 1.10,2013-05-12 02:15:00,
2013-05-11 21:30:00,70.7,55.0,30.11,NE,55,5.0,7.0,58,0.00,,,0.01,weatherlink.com 1.10,2013-05-12 02:30:00,
2013-05-11 21:46:00,68.8,54.0,30.11,NE,55,4.0,4.0,60,0.00,,,0.01,weatherlink.com 1.10,2013-05-12 02:46:00,
2013-05-11 22:00:00,68.2,55.0,30.12,NE,55,2.0,3.0,64,0.00,,,0.01,weatherlink.com 1.10,2013-05-12 03:00:00,
2013-05-11 22:15:00,67.7,56.0,30.12,NE,55,2.0,3.0,67,0.00,,,0.01,weatherlink.com 1.10,2013-05-12 03:15:00,
2013-05-11 22:30:00,67.1,56.0,30.11,NE,55,2.0,4.0,67,0.00,,,0.01,weatherlink.com 1.10,2013-05-12 03:30:00,
2013-05-11 22:45:00,66.9,55.0,30.11,NE,55,2.0,7.0,65,0.00,,,0.01,weatherlink.com 1.10,2013-05-12 03:45:00,
2013-05-11 23:00:00,67.4,55.0,30.11,NE,55,2.0,5.0,65,0.00,,,0.01,weatherlink.com 1.10,2013-05-12 04:00:00,
2013-05-11 23:15:00,67.4,56.0,30.12,NE,55,2.0,3.0,66,0.00,,,0.01,weatherlink.com 1.10,2013-05-12 04:15:00,
2013-05-11 23:30:00,67.2,55.0,30.12,NE,55,2.0,4.0,64,0.00,,,0.01,weatherlink.com 1.10,2013-05-12 04:30:00,
2013-05-11 23:45:00,67.2,54.0,30.12,NE,55,0.0,2.0,63,0.00,,,0.01,weatherlink.com 1.10,2013-05-12 04:45:00,